Location: Palo Alto
(37.4420°N, 122.1420°W)
Time: 13:05:14
(UTC-07:00)

Daily predictions for brighter satellites

Satellite Brightness Start Highest point End
(mag) Time Altitude Azimuth Time Altitude Azimuth Time Altitude Azimuth
Atlas Centaur 2 3.5 20:38:33 10° SW 20:44:55 37° SSE 20:52:18 10° E
Cosmos 2285 Rocket 4.3 20:41:24 10° N 20:47:36 55° ENE 20:53:47 10° SE
PSLV R/B 3.4 20:45:59 10° WSW 20:49:28 64° SSE 20:53:00 10° ENE
Cosmos 2098 Rocket 3.5 20:46:09 10° NNW 20:49:38 58° W 20:53:58 10° S
Envisat 4.3 20:46:47 10° ESE 20:50:43 23° ENE 20:54:39 10° NNE
Cosmos 1743 2.7 20:49:37 10° N 20:53:28 82° E 20:57:17 10° S
Cosmos 1110 Rocket 4.0 20:49:01 10° NNW 20:54:21 84° ENE 20:59:35 10° SSE
deb Chang Zheng 4 4.0 20:50:34 10° NNE 20:54:46 42° E 20:58:53 10° S
Cosmos 1464 Rocket 4.2 20:50:23 10° N 20:56:22 52° E 21:02:22 10° SSE
Cosmos 1939 Rocket 4.1 20:53:10 10° SE 20:56:40 27° ENE 21:00:09 10° NNE
Cosmos 1606 Rocket 3.7 20:53:49 10° N 20:58:16 82° W 21:02:38 10° S
ATLAS CENTAUR Rocket 4.1 20:56:07 10° SW 21:01:41 44° SSE 21:28:11 10° E
Lacrosse 5 rocket 4.0 20:58:55 10° W 21:02:01 23° NW 21:05:14 10° NNE
CZ-4 DEB 3.1 20:58:52 10° S 21:02:04 67° WSW 21:05:17 10° NNW
H-2A R/B 2.5 21:00:07 10° SE 21:04:10 46° ENE 21:08:19 10° N
SPOT 5 3.9 21:04:13 10° ESE 21:07:46 25° ENE 21:11:18 10° NNE
ALOS 2.7 21:03:50 10° S 21:08:27 65° WSW 21:13:06 10° NNW
Meteor 1-23 Rocket 4.3 21:05:42 10° S 21:11:21 89° W 21:17:06 10° N
COSMOS 2455 3.3 21:06:14 10° S 21:11:43 39° ESE 21:17:14 10° NE
Cosmos 1626 Rocket 4.0 21:08:05 10° SSE 21:12:16 43° E 21:16:28 10° NNE
Cosmos 1603 3.8 21:08:20 10° S 21:13:47 54° ESE 21:19:14 10° NNE
Cosmos 2034 Rocket 4.2 21:09:27 10° N 21:15:43 57° E 21:21:54 10° SSE
Meteor 2-9 Rocket 4.3 21:14:40 10° N 21:20:24 79° E 21:26:14 10° SSE
Cosmos 2228 3.0 21:16:45 10° N 21:21:10 73° E 21:25:33 10° SSE
BREEZE-M DEB (TANK) 2.7 21:20:52 10° SW 21:26:53 85° NW 21:29:17 10° NE
Meteor 2-4 Rocket 4.3 21:22:17 10° SSW 21:28:03 63° W 21:33:58 10° N
H-2A R/B 4.3 21:24:38 10° SSW 21:28:16 35° W 21:31:56 10° NNW
PSLV R/B 4.0 21:27:44 20° SE 21:29:17 34° ENE 21:32:09 10° N
Okean 2 4.4 21:27:46 10° SSW 21:31:49 49° W 21:35:53 10° N
Aureole 2 Rocket 3.9 21:29:49 10° SW 21:33:36 44° WNW 21:37:05 10° N
Cosmos 1943 3.8 21:32:15 10° SSE 21:37:17 34° ESE 21:42:21 10° NE
CZ-2C R/B 2.6 21:36:28 10° SSW 21:38:25 24° W 21:40:22 10° NW
Lacrosse 4 Rocket 2.9 21:39:17 17° E 21:39:17 17° E 21:41:31 10° ENE
USA 186 4.4 21:37:54 10° SW 21:39:32 14° W 21:41:07 10° WNW
H-2A R/B 4.1 21:38:43 10° E 21:40:28 12° ENE 21:42:14 10° NE
GEOS 3 Rocket 4.4 21:36:40 12° SSE 21:41:26 47° WSW 21:46:30 10° NW
Cosmos 1943 Rocket 4.4 21:41:31 10° NNE 21:42:58 11° NE 21:44:26 10° ENE
SeaSat 1 2.6 21:44:08 22° SE 21:47:15 59° ENE 21:52:06 10° NNW
Nimbus 7 Rocket 4.5 21:41:58 10° NNE 21:47:56 83° WNW 21:53:49 10° SSW
SPOT 1/Viking Rocket 4.2 21:45:59 22° SE 21:48:45 38° ENE 21:53:29 10° N
UNK 4.2 21:46:43 10° NNE 21:52:10 69° ESE 21:57:54 10° S
CZ-4B R/B 3.5 21:53:02 10° NNE 21:58:06 62° ESE 22:02:04 17° S
Cosmos 1461 3.3 21:56:37 10° NW 22:00:46 55° WSW 22:02:45 27° S
Cosmos 1238 4.2 22:01:58 29° SSW 22:03:27 80° W 22:06:27 10° N
Cosmos 1758 Rocket 4.5 22:04:10 29° ESE 22:04:41 29° E 22:08:29 10° NNE
Abrixas rocket 3.6 22:08:51 10° WNW 22:11:48 27° SW 22:12:14 26° SSW
ARGOS 3.3 22:14:46 33° SE 22:17:02 58° ENE 22:22:22 10° N
ISS -1.7 22:18:25 10° WSW 22:21:28 36° NW 22:24:32 10° NE
Cosmos 1825 Rocket 3.5 22:20:09 34° S 22:22:03 86° E 22:26:31 10° N
CZ-4C R/B 4.0 22:22:05 40° E 22:22:42 43° ENE 22:26:36 10° N
Cosmos 2369 Rocket 2.4 22:17:39 10° NNW 22:23:14 58° ENE 22:25:16 37° SE
ATLAS 3B R/B 2.9 22:17:17 10° SSW 22:24:57 74° ESE 22:32:31 10° NE
NAVSTAR 52 R/B(PAM-D 4.2 22:20:50 10° WNW 22:25:16 76° SSW 22:25:21 75° S
PSLV R/B 4.2 22:23:45 10° W 22:27:13 49° N 22:28:47 27° NE
Envisat 4.2 22:25:56 16° SSW 22:29:28 38° W 22:34:11 10° NNW
NOAA 11 4.1 22:31:39 42° SSE 22:33:33 75° ENE 22:38:57 10° N
Cosmos 407 Rocket 3.4 22:31:34 36° S 22:33:45 73° ESE 22:38:58 10° NNE
Atlas Centaur 2 3.1 22:26:40 10° WSW 22:34:09 52° S 22:37:59 32° ESE
SL-08 RB Rocket 3.6 22:37:33 57° SSE 22:38:25 78° ENE 22:42:58 10° N
USA 234 3.2 22:35:50 35° SE 22:38:51 81° NE 22:45:27 10° NW
CZ-4 R/B 4.1 22:35:08 10° N 22:40:07 74° WNW 22:42:44 29° SSW
Cosmos 1953 3.9 22:39:45 10° NNE 22:42:23 24° ENE 22:42:23 24° ENE
Milstar 3 Cent rocket 4.4 22:44:06 10° SW 22:45:10 10° SW 22:45:13 10° SW
SPOT 5 4.4 22:43:27 17° SW 22:45:45 25° W 22:49:22 10° NW
Landsat 7 3.8 22:45:23 58° ESE 22:46:04 67° ENE 22:50:47 10° N
Spot 4 4.5 22:48:23 38° E 22:48:44 39° ENE 22:53:10 10° N
YAOGAN 6 3.8 22:48:44 33° WSW 22:49:18 35° W 22:52:46 10° NNW
Cosmos 2263 4.2 22:44:02 10° NNW 22:49:39 69° ENE 22:50:53 52° SE
COSMOS 2406 4.0 22:51:29 34° E 22:51:29 34° E 22:56:00 10° NE
Cosmos 1954 Rocket 4.0 22:52:49 59° SE 22:53:19 62° ESE 22:58:33 10° NNE
Nadezhda 4 Rocket 4.5 22:53:11 40° ESE 22:54:00 41° E 22:59:53 10° NNE
Meteor 1-22 Rocket 4.3 22:49:43 10° NNW 22:55:20 77° W 22:57:04 47° S
Cosmos 1346 Rocket 3.7 22:59:54 38° WSW 23:00:34 42° WNW 23:04:19 10° N
Cosmos 1634 Rocket 4.5 22:55:21 10° NNW 23:01:21 55° W 23:04:03 32° SSW
Terra 1.8 23:01:40 67° E 23:01:52 68° ENE 23:06:36 10° N
USA 238 DEB 3.8 23:01:03 47° SSE 23:02:36 56° ESE 23:09:28 10° NE
USA 238 3.8 23:01:14 47° SSE 23:02:42 55° ESE 23:09:35 10° NE
IGS 5A 3.8 23:04:04 57° NE 23:04:04 57° NE 23:07:44 10° N
CZ-4C R/B 4.4 23:12:00 10° ENE 23:12:00 10° ENE 23:12:10 10° ENE
Cosmos 1842 3.9 23:14:45 55° NNW 23:14:45 55° NNW 23:18:00 10° N
Lacrosse 4 Rocket 2.9 23:15:32 23° WSW 23:17:13 32° WNW 23:20:56 10° N
H-2A R/B 1.9 23:18:56 74° SW 23:19:10 76° WSW 23:24:13 10° NNW
Cosmos 2279 Rocket 4.2 23:18:26 10° NNW 23:24:35 63° W 23:26:09 48° SSW
Cosmos-2242 3.4 23:21:33 10° N 23:25:25 64° NW 23:25:25 64° NW
Cosmos 1943 Rocket 2.0 23:22:03 10° NNW 23:27:38 77° ENE 23:27:52 76° E
Cosmos 1758 4.1 23:24:50 10° N 23:27:57 51° N 23:27:57 51° N
Cosmos 1850 Rocket 4.2 23:30:32 58° ENE 23:30:32 58° ENE 23:34:59 10° NNE
Cosmos 1570 Rocket 4.3 23:25:12 10° N 23:30:26 56° ENE 23:30:26 56° ENE
Cosmos 1607 3.8 23:40:55 76° SE 23:41:01 76° ESE 23:47:14 10° NNE
Cosmos 1656 Rocket 4.2 23:36:57 10° N 23:42:29 48° ENE 23:42:37 48° ENE
Meteor 2-5 Rocket 4.0 23:48:01 57° ENE 23:48:01 57° ENE 23:53:17 10° NNE
Cosmos 1140 Rocket 3.7 23:48:52 62° W 23:49:01 62° WNW 23:54:14 10° N
